Time,TemperatureF,DewpointF,PressureIn,WindDirection,WindDirectionDegrees,WindSpeedMPH,WindSpeedGustMPH,Humidity,HourlyPrecipIn,Conditions,Clouds,dailyrainin,SoftwareType,DateUTC
2013-06-13 10:28:00,76.3,45.0,30.02,NNW,338,1.1,1.1,33,0.00,,,0.00,WUHU216HW,2013-06-13 17:28:00,
2013-06-13 10:33:00,76.7,46.1,30.02,NW,311,2.6,4.5,34,0.00,,,0.00,WUHU216HW,2013-06-13 17:33:00,
2013-06-13 10:38:00,77.8,46.3,30.03,NNW,330,1.9,4.9,33,0.00,,,0.00,WUHU216HW,2013-06-13 17:38:00,
2013-06-13 10:45:00,77.9,44.8,30.02,WNW,288,3.1,6.9,31,0.00,,,0.00,WUHU216HW,2013-06-13 17:45:00,
2013-06-13 10:50:00,77.8,45.5,30.03,WNW,290,3.9,6.9,32,0.00,,,0.00,WUHU216HW,2013-06-13 17:50:00,
2013-06-13 10:55:00,78.1,45.8,30.02,NW,315,2.6,6.9,32,0.00,,,0.00,WUHU216HW,2013-06-13 17:55:00,
2013-06-13 11:00:00,78.5,45.3,30.02,WNW,285,3.9,7.4,31,0.00,,,0.00,WUHU216HW,2013-06-13 18:00:00,
2013-06-13 11:05:00,78.8,44.8,30.02,NW,307,4.2,8.5,30,0.00,,,0.00,WUHU216HW,2013-06-13 18:05:00,
2013-06-13 11:10:00,79.6,45.5,30.02,NW,324,2.5,5.8,30,0.00,,,0.00,WUHU216HW,2013-06-13 18:10:00,
2013-06-13 11:15:00,79.9,44.7,30.02,WNW,303,4.7,6.3,29,0.00,,,0.00,WUHU216HW,2013-06-13 18:15:00,
2013-06-13 11:20:00,79.9,43.8,30.02,WNW,297,4.0,6.9,28,0.00,,,0.00,WUHU216HW,2013-06-13 18:20:00,
2013-06-13 11:25:00,80.5,42.1,30.02,WNW,294,3.5,6.3,26,0.00,,,0.00,WUHU216HW,2013-06-13 18:25:00,
2013-06-13 11:30:00,80.6,44.4,30.02,NW,311,2.3,6.0,28,0.00,,,0.00,WUHU216HW,2013-06-13 18:30:00,
2013-06-13 11:35:00,81.2,42.7,30.02,WNW,302,3.2,4.7,26,0.00,,,0.00,WUHU216HW,2013-06-13 18:35:00,
2013-06-13 11:40:00,81.4,42.8,30.02,WNW,300,2.9,4.7,26,0.00,,,0.00,WUHU216HW,2013-06-13 18:40:00,
2013-06-13 11:45:00,81.7,42.1,30.02,WNW,298,3.1,5.4,25,0.00,,,0.00,WUHU216HW,2013-06-13 18:45:00,
2013-06-13 11:50:00,81.9,42.2,30.02,NNW,348,2.1,4.3,25,0.00,,,0.00,WUHU216HW,2013-06-13 18:50:00,
2013-06-13 11:55:00,82.3,42.5,30.02,NW,308,3.2,7.2,25,0.00,,,0.00,WUHU216HW,2013-06-13 18:55:00,
2013-06-13 12:00:00,82.4,41.6,30.02,WNW,292,3.3,5.8,24,0.00,,,0.00,WUHU216HW,2013-06-13 19:00:00,
2013-06-13 12:05:00,82.4,40.6,30.01,West,268,3.0,6.9,23,0.00,,,0.00,WUHU216HW,2013-06-13 19:05:00,
2013-06-13 12:10:00,83.0,41.1,30.01,West,276,4.4,6.5,23,0.00,,,0.00,WUHU216HW,2013-06-13 19:10:00,
2013-06-13 12:15:00,83.2,41.1,30.01,West,280,3.4,6.3,23,0.00,,,0.00,WUHU216HW,2013-06-13 19:15:00,
2013-06-13 12:20:00,83.2,41.1,30.02,WNW,289,3.9,6.3,23,0.00,,,0.00,WUHU216HW,2013-06-13 19:20:00,
2013-06-13 12:25:00,83.2,41.1,30.02,NW,307,3.1,6.5,23,0.00,,,0.00,WUHU216HW,2013-06-13 19:25:00,
2013-06-13 12:30:00,83.7,41.6,30.02,NW,308,3.5,5.4,23,0.00,,,0.00,WUHU216HW,2013-06-13 19:30:00,
2013-06-13 12:35:00,84.4,40.1,30.02,WNW,286,3.2,5.1,21,0.00,,,0.00,WUHU216HW,2013-06-13 19:35:00,
2013-06-13 12:40:00,84.4,40.1,30.01,West,278,5.1,8.5,21,0.00,,,0.00,WUHU216HW,2013-06-13 19:40:00,
2013-06-13 12:45:00,84.2,40.0,30.01,West,278,3.4,6.9,21,0.00,,,0.00,WUHU216HW,2013-06-13 19:45:00,
2013-06-13 12:50:00,84.2,41.1,30.01,West,278,2.2,4.3,22,0.00,,,0.00,WUHU216HW,2013-06-13 19:50:00,
2013-06-13 12:55:00,84.6,40.2,30.01,West,274,3.1,6.0,21,0.00,,,0.00,WUHU216HW,2013-06-13 19:55:00,
2013-06-13 13:00:00,85.0,41.6,30.01,NW,309,2.7,5.1,22,0.00,,,0.00,WUHU216HW,2013-06-13 20:00:00,
2013-06-13 13:05:00,85.3,40.9,30.00,WNW,298,4.2,6.9,21,0.00,,,0.00,WUHU216HW,2013-06-13 20:05:00,
2013-06-13 13:10:00,85.3,40.9,30.00,WNW,285,2.3,4.7,21,0.00,,,0.00,WUHU216HW,2013-06-13 20:10:00,
2013-06-13 13:15:00,85.3,40.9,30.00,West,268,2.8,5.4,21,0.00,,,0.00,WUHU216HW,2013-06-13 20:15:00,
2013-06-13 13:20:00,85.3,41.9,30.00,WNW,286,3.2,5.4,22,0.00,,,0.00,WUHU216HW,2013-06-13 20:20:00,
2013-06-13 13:25:00,85.5,41.0,30.00,WNW,284,3.9,6.9,21,0.00,,,0.00,WUHU216HW,2013-06-13 20:25:00,
2013-06-13 13:30:00,85.9,42.3,30.00,NW,313,2.8,6.3,22,0.00,,,0.00,WUHU216HW,2013-06-13 20:30:00,
2013-06-13 13:35:00,86.4,42.9,29.99,West,281,2.6,4.7,22,0.00,,,0.00,WUHU216HW,2013-06-13 20:35:00,
2013-06-13 13:40:00,86.6,41.9,29.99,SSW,196,2.9,4.9,21,0.00,,,0.00,WUHU216HW,2013-06-13 20:40:00,
2013-06-13 13:45:00,86.6,42.9,29.99,WNW,285,3.4,6.3,22,0.00,,,0.00,WUHU216HW,2013-06-13 20:45:00,
2013-06-13 13:50:00,86.8,42.0,29.99,WNW,290,3.9,6.7,21,0.00,,,0.00,WUHU216HW,2013-06-13 20:50:00,
2013-06-13 13:55:00,87.1,42.4,29.99,WNW,283,3.8,5.1,21,0.00,,,0.00,WUHU216HW,2013-06-13 20:55:00,
2013-06-13 14:00:00,87.1,39.6,29.98,WNW,296,2.2,4.0,19,0.00,,,0.00,WUHU216HW,2013-06-13 21:00:00,
2013-06-13 14:05:00,86.9,39.4,29.98,NNW,342,1.5,2.7,19,0.00,,,0.00,WUHU216HW,2013-06-13 21:05:00,
2013-06-13 14:10:00,87.7,42.8,29.98,NW,317,1.4,2.7,21,0.00,,,0.00,WUHU216HW,2013-06-13 21:10:00,
2013-06-13 14:15:00,88.4,43.5,29.98,WNW,287,2.5,4.7,21,0.00,,,0.00,WUHU216HW,2013-06-13 21:15:00,
2013-06-13 14:20:00,88.6,43.6,29.98,WNW,289,2.9,6.3,21,0.00,,,0.00,WUHU216HW,2013-06-13 21:20:00,
2013-06-13 14:25:00,88.6,43.6,29.97,NW,304,1.9,4.3,21,0.00,,,0.00,WUHU216HW,2013-06-13 21:25:00,
2013-06-13 14:30:00,88.6,44.6,29.97,WNW,293,3.4,5.1,22,0.00,,,0.00,WUHU216HW,2013-06-13 21:30:00,
2013-06-13 14:35:00,88.7,43.8,29.97,WNW,300,3.7,6.5,21,0.00,,,0.00,WUHU216HW,2013-06-13 21:35:00,
2013-06-13 14:40:00,88.4,40.7,29.97,WNW,296,1.9,4.0,19,0.00,,,0.00,WUHU216HW,2013-06-13 21:40:00,
2013-06-13 14:45:00,88.4,43.5,29.96,WSW,244,1.8,4.3,21,0.00,,,0.00,WUHU216HW,2013-06-13 21:45:00,
2013-06-13 14:50:00,88.6,43.6,29.96,SW,221,1.9,4.3,21,0.00,,,0.00,WUHU216HW,2013-06-13 21:50:00,
2013-06-13 14:55:00,89.1,44.0,29.96,WNW,292,3.1,5.6,21,0.00,,,0.00,WUHU216HW,2013-06-13 21:55:00,
2013-06-13 15:00:00,89.3,44.2,29.96,West,270,3.2,4.9,21,0.00,,,0.00,WUHU216HW,2013-06-13 22:00:00,
2013-06-13 15:05:00,89.3,44.2,29.96,NW,320,2.5,5.6,21,0.00,,,0.00,WUHU216HW,2013-06-13 22:05:00,
2013-06-13 15:10:00,88.9,42.9,29.96,West,281,3.7,6.9,20,0.00,,,0.00,WUHU216HW,2013-06-13 22:10:00,
2013-06-13 15:15:00,88.9,41.0,29.96,WSW,252,2.1,4.7,19,0.00,,,0.00,WUHU216HW,2013-06-13 22:15:00,
2013-06-13 15:20:00,89.1,42.9,29.95,WSW,253,3.3,5.4,20,0.00,,,0.00,WUHU216HW,2013-06-13 22:20:00,
2013-06-13 15:25:00,90.0,43.7,29.95,WSW,250,2.7,4.5,20,0.00,,,0.00,WUHU216HW,2013-06-13 22:25:00,
2013-06-13 15:30:00,90.0,42.0,29.95,WSW,252,2.9,5.4,19,0.00,,,0.00,WUHU216HW,2013-06-13 22:30:00,
2013-06-13 15:35:00,90.0,42.0,29.95,West,274,3.0,5.8,19,0.00,,,0.00,WUHU216HW,2013-06-13 22:35:00,
2013-06-13 15:40:00,89.5,41.5,29.95,West,281,2.7,4.7,19,0.00,,,0.00,WUHU216HW,2013-06-13 22:40:00,
2013-06-13 15:45:00,89.3,39.6,29.94,West,267,3.3,6.3,18,0.00,,,0.00,WUHU216HW,2013-06-13 22:45:00,
2013-06-13 15:50:00,89.8,40.1,29.94,South,187,3.2,4.7,18,0.00,,,0.00,WUHU216HW,2013-06-13 22:50:00,
2013-06-13 15:55:00,89.8,40.1,29.94,WNW,288,3.1,5.8,18,0.00,,,0.00,WUHU216HW,2013-06-13 22:55:00,
2013-06-13 16:00:00,89.8,40.1,29.93,SW,236,1.9,3.6,18,0.00,,,0.00,WUHU216HW,2013-06-13 23:00:00,
2013-06-13 16:05:00,90.0,40.1,29.93,West,280,3.4,6.3,18,0.00,,,0.00,WUHU216HW,2013-06-13 23:05:00,
2013-06-13 16:10:00,90.2,40.3,29.93,West,265,2.2,3.8,18,0.00,,,0.00,WUHU216HW,2013-06-13 23:10:00,
2013-06-13 16:15:00,90.0,40.1,29.93,West,275,3.3,5.4,18,0.00,,,0.00,WUHU216HW,2013-06-13 23:15:00,
2013-06-13 16:20:00,89.6,39.9,29.93,WNW,302,3.9,6.3,18,0.00,,,0.00,WUHU216HW,2013-06-13 23:20:00,
2013-06-13 16:25:00,89.3,39.6,29.93,WNW,290,4.3,6.7,18,0.00,,,0.00,WUHU216HW,2013-06-13 23:25:00,
2013-06-13 16:30:00,89.6,38.2,29.93,West,273,4.1,6.3,17,0.00,,,0.00,WUHU216HW,2013-06-13 23:30:00,
2013-06-13 16:35:00,89.8,38.3,29.93,West,277,4.4,8.1,17,0.00,,,0.00,WUHU216HW,2013-06-13 23:35:00,
2013-06-13 16:40:00,90.0,38.4,29.92,WNW,282,4.2,6.3,17,0.00,,,0.00,WUHU216HW,2013-06-13 23:40:00,
2013-06-13 16:45:00,90.0,38.4,29.92,West,280,4.0,7.2,17,0.00,,,0.00,WUHU216HW,2013-06-13 23:45:00,
2013-06-13 16:50:00,89.6,36.4,29.92,NW,312,3.1,5.4,16,0.00,,,0.00,WUHU216HW,2013-06-13 23:50:00,
2013-06-13 16:55:00,89.5,36.3,29.92,NW,311,4.4,7.6,16,0.00,,,0.00,WUHU216HW,2013-06-13 23:55:00,
2013-06-13 17:00:00,88.9,37.6,29.92,NNW,333,3.2,6.9,17,0.00,,,0.00,WUHU216HW,2013-06-14 00:00:00,
2013-06-13 17:05:00,88.7,39.2,29.92,NW,318,2.5,4.3,18,0.00,,,0.00,WUHU216HW,2013-06-14 00:05:00,
2013-06-13 17:10:00,88.4,37.2,29.91,NNW,329,1.9,3.1,17,0.00,,,0.00,WUHU216HW,2013-06-14 00:10:00,
2013-06-13 17:15:00,88.6,37.4,29.91,NW,308,4.0,8.1,17,0.00,,,0.00,WUHU216HW,2013-06-14 00:15:00,
2013-06-13 17:20:00,88.4,38.9,29.91,NW,308,4.9,8.5,18,0.00,,,0.00,WUHU216HW,2013-06-14 00:20:00,
2013-06-13 17:25:00,88.6,37.4,29.91,WNW,292,4.6,7.6,17,0.00,,,0.00,WUHU216HW,2013-06-14 00:25:00,
2013-06-13 17:30:00,88.7,39.2,29.91,NW,308,4.1,6.3,18,0.00,,,0.00,WUHU216HW,2013-06-14 00:30:00,
2013-06-13 17:35:00,88.6,39.1,29.91,WNW,291,3.8,5.4,18,0.00,,,0.00,WUHU216HW,2013-06-14 00:35:00,
2013-06-13 17:40:00,88.7,37.4,29.91,NW,308,4.4,7.4,17,0.00,,,0.00,WUHU216HW,2013-06-14 00:40:00,
2013-06-13 17:45:00,88.6,37.4,29.91,NW,304,5.1,8.7,17,0.00,,,0.00,WUHU216HW,2013-06-14 00:45:00,
2013-06-13 17:50:00,88.4,38.9,29.91,WNW,294,4.2,6.5,18,0.00,,,0.00,WUHU216HW,2013-06-14 00:50:00,
2013-06-13 17:55:00,88.2,37.0,29.91,WNW,288,4.5,5.8,17,0.00,,,0.00,WUHU216HW,2013-06-14 00:55:00,
2013-06-13 18:00:00,88.0,36.9,29.91,West,275,5.2,8.3,17,0.00,,,0.00,WUHU216HW,2013-06-14 01:00:00,
2013-06-13 18:05:00,87.8,36.7,29.91,WNW,294,4.7,6.5,17,0.00,,,0.00,WUHU216HW,2013-06-14 01:05:00,
2013-06-13 18:10:00,87.7,36.6,29.90,NW,308,4.6,6.9,17,0.00,,,0.00,WUHU216HW,2013-06-14 01:10:00,
2013-06-13 18:15:00,87.5,34.8,29.90,West,276,5.3,7.6,16,0.00,,,0.00,WUHU216HW,2013-06-14 01:15:00,
2013-06-13 18:20:00,87.5,36.5,29.90,WNW,293,5.2,6.7,17,0.00,,,0.00,WUHU216HW,2013-06-14 01:20:00,
2013-06-13 18:25:00,87.3,36.3,29.90,WNW,297,4.8,6.0,17,0.00,,,0.00,WUHU216HW,2013-06-14 01:25:00,
2013-06-13 18:30:00,87.1,36.1,29.90,WNW,292,4.5,5.6,17,0.00,,,0.00,WUHU216HW,2013-06-14 01:30:00,
2013-06-13 18:35:00,87.1,37.9,29.90,WNW,295,4.0,5.6,18,0.00,,,0.00,WUHU216HW,2013-06-14 01:35:00,
2013-06-13 18:40:00,86.9,37.7,29.90,WNW,290,5.1,7.6,18,0.00,,,0.00,WUHU216HW,2013-06-14 01:40:00,
2013-06-13 18:45:00,86.8,37.5,29.90,WNW,283,3.7,6.3,18,0.00,,,0.00,WUHU216HW,2013-06-14 01:45:00,
2013-06-13 18:50:00,86.8,37.5,29.90,NW,305,3.9,6.3,18,0.00,,,0.00,WUHU216HW,2013-06-14 01:50:00,
2013-06-13 18:55:00,86.8,37.5,29.91,WNW,299,4.5,6.0,18,0.00,,,0.00,WUHU216HW,2013-06-14 01:55:00,
2013-06-13 19:00:00,86.6,37.4,29.90,NW,306,3.7,5.4,18,0.00,,,0.00,WUHU216HW,2013-06-14 02:00:00,
2013-06-13 19:05:00,86.4,39.0,29.91,NW,304,4.0,6.9,19,0.00,,,0.00,WUHU216HW,2013-06-14 02:05:00,
2013-06-13 19:10:00,86.2,38.8,29.90,WNW,300,3.6,5.6,19,0.00,,,0.00,WUHU216HW,2013-06-14 02:10:00,
2013-06-13 19:15:00,86.0,38.6,29.90,WNW,290,3.2,4.9,19,0.00,,,0.00,WUHU216HW,2013-06-14 02:15:00,
2013-06-13 19:20:00,86.0,41.4,29.90,WNW,294,2.8,4.0,21,0.00,,,0.00,WUHU216HW,2013-06-14 02:20:00,
2013-06-13 19:25:00,85.9,41.2,29.91,WNW,300,1.8,3.4,21,0.00,,,0.00,WUHU216HW,2013-06-14 02:25:00,
2013-06-13 19:30:00,85.5,41.0,29.91,WNW,298,2.6,3.4,21,0.00,,,0.00,WUHU216HW,2013-06-14 02:30:00,
2013-06-13 19:35:00,85.3,40.9,29.91,WNW,301,2.5,3.6,21,0.00,,,0.00,WUHU216HW,2013-06-14 02:35:00,
2013-06-13 19:40:00,84.8,40.4,29.91,WNW,292,2.2,3.4,21,0.00,,,0.00,WUHU216HW,2013-06-14 02:40:00,
2013-06-13 19:45:00,84.6,41.3,29.91,WNW,293,1.8,2.5,22,0.00,,,0.00,WUHU216HW,2013-06-14 02:45:00,
2013-06-13 19:50:00,84.2,41.1,29.91,West,274,2.5,3.6,22,0.00,,,0.00,WUHU216HW,2013-06-14 02:50:00,
2013-06-13 19:55:00,83.9,41.8,29.91,WNW,289,2.1,3.8,23,0.00,,,0.00,WUHU216HW,2013-06-14 02:55:00,
2013-06-13 20:00:00,83.3,41.3,29.91,WNW,293,2.1,3.6,23,0.00,,,0.00,WUHU216HW,2013-06-14 03:00:00,
2013-06-13 20:05:00,83.0,42.0,29.91,West,275,1.0,1.8,24,0.00,,,0.00,WUHU216HW,2013-06-14 03:05:00,
2013-06-13 20:10:00,82.6,42.9,29.91,West,276,0.8,1.8,25,0.00,,,0.00,WUHU216HW,2013-06-14 03:10:00,
2013-06-13 20:15:00,82.3,42.5,29.91,NW,307,0.7,0.9,25,0.00,,,0.00,WUHU216HW,2013-06-14 03:15:00,
2013-06-13 20:20:00,81.7,42.1,29.91,NW,315,0.3,0.4,25,0.00,,,0.00,WUHU216HW,2013-06-14 03:20:00,
2013-06-13 20:25:00,81.0,42.6,29.91,North,0,0.0,0.0,26,0.00,,,0.00,WUHU216HW,2013-06-14 03:25:00,
2013-06-13 20:30:00,80.3,44.0,29.91,North,0,0.0,0.0,28,0.00,,,0.00,WUHU216HW,2013-06-14 03:30:00,
2013-06-13 20:35:00,79.6,44.5,29.91,North,0,0.0,0.0,29,0.00,,,0.00,WUHU216HW,2013-06-14 03:35:00,
2013-06-13 20:40:00,78.7,44.6,29.91,North,0,0.0,0.0,30,0.00,,,0.00,WUHU216HW,2013-06-14 03:40:00,
2013-06-13 20:45:00,77.8,44.7,29.91,North,0,0.0,0.0,31,0.00,,,0.00,WUHU216HW,2013-06-14 03:45:00,
2013-06-13 20:50:00,77.2,45.0,29.91,North,0,0.0,0.0,32,0.00,,,0.00,WUHU216HW,2013-06-14 03:50:00,
2013-06-13 20:55:00,76.5,44.4,29.91,North,0,0.0,0.0,32,0.00,,,0.00,WUHU216HW,2013-06-14 03:55:00,
2013-06-13 21:00:00,76.0,44.6,29.91,North,0,0.0,0.0,33,0.00,,,0.00,WUHU216HW,2013-06-14 04:00:00,
2013-06-13 21:05:00,75.4,44.9,29.92,North,0,0.0,0.0,34,0.00,,,0.00,WUHU216HW,2013-06-14 04:05:00,
2013-06-13 21:10:00,74.9,45.2,29.92,North,0,0.0,0.0,35,0.00,,,0.00,WUHU216HW,2013-06-14 04:10:00,
2013-06-13 21:15:00,74.5,44.9,29.92,North,0,0.0,0.0,35,0.00,,,0.00,WUHU216HW,2013-06-14 04:15:00,
2013-06-13 21:20:00,74.0,44.4,29.92,North,0,0.0,0.0,35,0.00,,,0.00,WUHU216HW,2013-06-14 04:20:00,
2013-06-13 21:25:00,73.6,45.6,29.92,North,0,0.0,0.0,37,0.00,,,0.00,WUHU216HW,2013-06-14 04:25:00,
2013-06-13 21:30:00,73.1,45.9,29.92,North,0,0.0,0.0,38,0.00,,,0.00,WUHU216HW,2013-06-14 04:30:00,
2013-06-13 21:35:00,72.5,46.2,29.92,North,0,0.0,0.0,39,0.00,,,0.00,WUHU216HW,2013-06-14 04:35:00,
2013-06-13 21:40:00,72.0,45.6,29.92,North,0,0.0,0.0,39,0.00,,,0.00,WUHU216HW,2013-06-14 04:40:00,
2013-06-13 21:45:00,71.6,46.1,29.92,North,0,0.0,0.0,40,0.00,,,0.00,WUHU216HW,2013-06-14 04:45:00,
2013-06-13 21:50:00,71.3,46.4,29.92,North,0,0.0,0.0,41,0.00,,,0.00,WUHU216HW,2013-06-14 04:50:00,
2013-06-13 21:55:00,70.9,46.0,29.93,North,0,0.0,0.0,41,0.00,,,0.00,WUHU216HW,2013-06-14 04:55:00,
2013-06-13 22:00:00,70.6,45.7,29.92,North,0,0.0,0.0,41,0.00,,,0.00,WUHU216HW,2013-06-14 05:00:00,
2013-06-13 22:05:00,70.0,45.8,29.92,North,0,0.0,0.0,42,0.00,,,0.00,WUHU216HW,2013-06-14 05:05:00,
2013-06-13 22:10:00,69.7,46.1,29.93,North,0,0.0,0.0,43,0.00,,,0.00,WUHU216HW,2013-06-14 05:10:00,
2013-06-13 22:15:00,69.3,45.7,29.93,North,0,0.0,0.0,43,0.00,,,0.00,WUHU216HW,2013-06-14 05:15:00,
2013-06-13 22:20:00,68.9,46.0,29.93,North,0,0.0,0.0,44,0.00,,,0.00,WUHU216HW,2013-06-14 05:20:00,
2013-06-13 22:25:00,68.8,45.3,29.92,North,0,0.0,0.0,43,0.00,,,0.00,WUHU216HW,2013-06-14 05:25:00,
2013-06-13 22:30:00,68.4,44.9,29.92,North,0,0.0,0.0,43,0.00,,,0.00,WUHU216HW,2013-06-14 05:30:00,
2013-06-13 22:35:00,68.2,45.4,29.93,North,0,0.0,0.0,44,0.00,,,0.00,WUHU216HW,2013-06-14 05:35:00,
2013-06-13 22:40:00,67.9,45.6,29.92,North,0,0.0,0.0,45,0.00,,,0.00,WUHU216HW,2013-06-14 05:40:00,
2013-06-13 22:45:00,67.5,45.4,29.93,North,0,0.0,0.0,45,0.00,,,0.00,WUHU216HW,2013-06-14 05:45:00,
2013-06-13 22:50:00,67.3,45.7,29.93,North,0,0.0,0.0,46,0.00,,,0.00,WUHU216HW,2013-06-14 05:50:00,
2013-06-13 22:55:00,67.0,45.5,29.93,North,0,0.0,0.0,46,0.00,,,0.00,WUHU216HW,2013-06-14 05:55:00,
2013-06-13 23:00:00,66.6,45.7,29.92,North,0,0.4,0.4,47,0.00,,,0.00,WUHU216HW,2013-06-14 06:00:00,
2013-06-13 23:05:00,66.1,45.8,29.93,NNE,21,0.4,0.9,48,0.00,,,0.00,WUHU216HW,2013-06-14 06:05:00,
2013-06-13 23:10:00,65.9,45.6,29.92,North,0,0.0,0.0,48,0.00,,,0.00,WUHU216HW,2013-06-14 06:10:00,
2013-06-13 23:15:00,65.5,45.3,29.92,North,11,0.5,0.7,48,0.00,,,0.00,WUHU216HW,2013-06-14 06:15:00,
2013-06-13 23:20:00,65.5,45.3,29.92,North,0,0.0,0.0,48,0.00,,,0.00,WUHU216HW,2013-06-14 06:20:00,
2013-06-13 23:25:00,65.3,45.1,29.92,North,0,0.0,0.0,48,0.00,,,0.00,WUHU216HW,2013-06-14 06:25:00,
2013-06-13 23:30:00,65.2,45.6,29.92,North,0,0.0,0.0,49,0.00,,,0.00,WUHU216HW,2013-06-14 06:30:00,
2013-06-13 23:35:00,65.0,45.4,29.92,North,0,0.0,0.0,49,0.00,,,0.00,WUHU216HW,2013-06-14 06:35:00,
2013-06-13 23:40:00,64.8,45.2,29.92,NE,45,0.6,0.7,49,0.00,,,0.00,WUHU216HW,2013-06-14 06:40:00,
2013-06-13 23:45:00,64.4,45.4,29.92,North,0,0.0,0.0,50,0.00,,,0.00,WUHU216HW,2013-06-14 06:45:00,
2013-06-13 23:50:00,64.1,45.6,29.92,North,0,0.0,0.0,51,0.00,,,0.00,WUHU216HW,2013-06-14 06:50:00,
2013-06-13 23:55:00,63.9,45.4,29.92,North,0,0.0,0.0,51,0.00,,,0.00,WUHU216HW,2013-06-14 06:55:00,